User: anonymous   Login
Location: Bergfeld
(52.0500°N, 11.7833°E)
Time: 06:38:24
(UTC+00:00)
Language:

ALOS - Orbit

View from above orbital plane
View from above orbital plane
View from above satellite
View from above satellite

Ground track
Ground track

The orbit data is extracted from the following two-line orbital elements,

1 28931U 06002A   20152.79277927  .00000086  00000-0  25469-4 0  9995
2 28931  97.8447 139.3420 0001840 101.8879 258.2539 14.62711364765268
Epoch (UTC): 31 May 2020 19:01:36
Eccentricity: 0.0001840
inclination: 97.8447°
perigee height: 683 km
apogee height: 686 km
right ascension of ascending node: 139.3420°
argument of perigee: 101.8879°
revolutions per day: 14.62711364
mean anomaly at epoch: 258.2539°
orbit number at epoch: 76526

The dashed part of the orbit path shows where the satellite is in the earth's shadow,  

DLR